Dewpoint
55 48 48 41 30 31 27 25 12 12 13 19 19 23 35 49 50 49 57 61 64 67 70 72 73 74 73 73 73 73 73 74 74 73 74 73 73 73 73 72 72 72 71 71 71 71 70 70 70
46 39 41 31 29 23 20 14 12 14 22 24 25 30 40 53 53 53 57 63 64 66 70 71 73 73 73 73 73 73 73 74 74 74 74 73 73 73 72 72 72 72 71 69 70 70 69 69 69
48 41 26 30 26 20 14 14 13 18 23 23 32 33 44 56 58 58 58 63 64 65 68 71 72 73 73 73 72 73 73 73 73 73 74 73 73 73 72 72 72 72 71 69 68 68 68 68 67
36 28 26 21 16 15 13 15 16 17 19 21 30 39 57 59 59 59 59 62 63 63 68 71 71 72 73 72 73 73 73 72 72 73 73 73 73 73 72 72 72 72 71 70 69 68 68 67 67
33 23 20 21 19 16 14 15 16 17 21 24 28 37 57 58 60 59 57 62 61 62 69 70 70 72 72 73 73 72 72 72 72 73 73 73 73 72 72 71 72 72 72 71 70 69 68 68 68
20 20 16 14 13 11 16 17 17 17 18 23 28 33 56 59 58 59 58 61 62 65 68 70 71 72 72 72 72 71 71 71 71 72 72 73 72 72 71 71 72 71 71 71 70 69 69 69 69
20 19 14 12 10 11 19 22 18 18 17 22 26 32 56 57 59 59 58 61 67 67 68 69 71 72 71 71 71 70 71 71 71 71 71 71 71 71 71 71 72 71 71 70 70 69 69 68 67
21 18 13 12 10 11 23 21 17 16 20 24 22 32 53 57 59 58 59 60 67 67 67 69 70 71 71 71 70 70 70 70 70 70 70 70 70 70 71 70 71 71 71 70 69 68 67 66 66
21 15 12 10 10 12 21 17 19 18 18 22 23 23 56 58 58 57 57 59 68 69 67 67 69 70 70 70 71 70 70 70 69 70 70 69 69 70 70 70 70 70 69 68 68 67 66 66 66
18 16 14 14 13 12 13 14 15 16 17 25 24 25 51 56 56 56 56 57 62 68 67 66 67 68 69 70 70 70 70 70 70 70 69 69 69 69 70 69 69 68 67 67 66 66 66 66 63
19 16 16 16 17 18 11 12 14 16 19 21 27 26 29 45 52 56 57 57 59 67 68 66 67 67 68 67 69 69 69 69 69 69 69 69 69 69 69 67 67 66 66 65 65 64 64 63 63
17 18 17 17 17 16 15 13 16 16 19 22 21 24 25 28 30 45 52 57 58 62 68 67 67 67 67 65 68 67 68 68 68 68 69 68 67 67 67 67 66 65 64 62 62 60 60 60 61
17 16 16 17 19 18 19 18 17 18 19 20 21 24 26 27 29 31 32 36 57 60 65 67 67 67 67 66 66 66 66 67 67 68 69 68 67 66 67 66 66 65 63 63 61 60 60 60 56
23 21 21 21 21 21 20 19 18 18 19 19 21 23 26 29 28 29 33 34 41 59 63 67 67 67 66 65 66 65 67 67 67 68 69 67 67 66 67 66 65 65 63 63 61 61 60 58 55
26 25 26 26 25 24 23 20 19 19 19 20 25 21 27 33 32 32 34 33 36 54 60 65 67 67 67 65 67 66 66 67 67 67 68 68 67 67 66 66 64 65 64 64 63 60 58 56 53
24 25 24 25 25 26 24 22 21 19 20 21 26 27 28 29 29 32 36 36 36 39 58 62 66 67 67 66 67 67 68 67 68 68 68 68 68 67 66 65 65 65 64 64 59 57 54 52 51
26 22 25 25 26 25 23 22 26 26 22 24 25 27 28 29 30 32 35 37 38 42 58 61 63 65 66 65 67 67 68 68 67 67 68 67 67 67 65 64 65 64 62 60 59 57 53 50 51
25 25 25 24 24 26 26 26 27 28 26 25 25 26 27 28 29 30 36 42 42 46 60 61 63 64 64 66 66 67 67 67 67 67 67 67 67 66 65 64 63 62 60 59 58 55 53 50 50
25 24 23 25 27 29 28 28 28 28 28 28 29 29 29 30 32 36 45 51 49 49 60 62 63 64 64 64 65 65 64 64 61 62 64 65 65 65 63 63 60 60 59 58 56 55 49 49 50
27 25 25 29 31 30 29 29 28 29 28 28 28 29 32 42 39 44 46 49 59 63 60 62 63 65 64 64 64 64 61 58 58 58 57 58 59 61 62 60 60 60 59 58 55 53 52 52 52
29 28 30 30 31 31 30 29 28 30 30 30 32 35 40 43 44 47 47 52 59 62 63 64 65 65 65 63 59 58 57 57 57 55 55 55 54 54 55 57 55 55 57 55 55 54 53 53 54
31 33 32 31 31 29 30 28 29 30 30 30 36 37 40 43 46 49 51 55 57 58 61 65 65 65 65 62 60 60 58 56 56 55 55 54 53 51 51 52 52 52 52 51 51 51 51 53 52
30 35 34 34 32 32 31 29 29 30 29 28 38 42 45 46 46 49 52 55 56 57 57 61 64 64 63 62 61 60 58 56 53 51 49 49 50 51 50 50 50 49 50 50 51 50 50 51 50
35 35 34 34 33 30 31 30 29 28 35 38 41 43 45 45 46 51 53 55 55 55 56 58 61 60 60 58 58 59 56 52 50 49 48 48 49 49 49 49 49 49 50 50 50 50 50 50 50
34 33 31 30 30 29 30 29 30 32 36 39 40 42 45 46 47 51 52 53 54 53 53 55 56 54 56 57 56 55 55 53 51 49 48 47 47 47 48 48 48 49 48 48 48 47 47 47 47
34 33 32 29 28 27 29 27 27 35 39 40 41 43 46 46 48 49 50 54 54 54 53 53 53 53 53 52 52 51 51 51 50 49 47 47 47 47 48 48 48 47 46 47 46 46 46 46 45
35 32 33 32 32 29 28 27 35 39 39 39 39 42 46 47 48 48 50 53 55 54 54 54 53 53 52 51 51 50 50 49 48 48 48 48 48 47 48 48 46 47 46 46 45 44 43 43 43
36 34 31 34 27 26 27 27 25 37 38 39 39 39 40 44 47 48 49 52 54 55 55 53 54 53 52 51 51 50 50 49 49 48 47 47 47 46 46 45 46 46 44 43 43 41 41 41 40
36 34 35 34 33 27 25 26 33 38 40 39 37 40 42 42 45 48 49 51 52 55 56 55 54 53 53 52 51 50 50 49 48 47 46 47 46 46 46 46 44 44 42 42 40 40 40 39 39
35 34 34 33 31 31 30 29 33 36 34 32 31 35 38 39 41 47 49 51 53 54 54 54 53 52 52 51 51 50 48 48 47 47 46 46 45 45 44 43 42 42 41 40 39 38 38 37 36
Lifted_Index
11 10 8 5 3 1 1 1 1 2 2 4 4 3 0 -2 -2 -1 -1 -1 -2 -2 -3 -4 -5 -6 -6 -6 -6 -6 -6 -6 -6 -6 -6 -6 -6 -5 -5 -5 -5 -5 -5 -5 -5 -5 -4 -4 -4
10 9 7 5 2 1 1 1 1 2 3 4 4 2 0 -2 -2 -2 -1 -2 -2 -2 -3 -4 -5 -6 -6 -6 -6 -6 -6 -6 -6 -6 -6 -6 -6 -5 -5 -5 -5 -5 -5 -4 -4 -4 -4 -3 -3
9 8 6 3 2 1 1 1 2 3 4 4 3 2 -1 -3 -3 -3 -2 -2 -2 -2 -3 -4 -5 -6 -6 -6 -6 -6 -6 -6 -6 -6 -6 -6 -6 -5 -5 -5 -5 -5 -5 -4 -4 -3 -3 -2 -2
9 8 5 2 1 1 1 1 2 2 3 3 3 1 -2 -4 -4 -3 -2 -2 -2 -3 -3 -4 -5 -5 -6 -6 -6 -6 -6 -6 -6 -6 -6 -6 -6 -6 -5 -5 -5 -5 -5 -5 -4 -3 -2 -2 -2
8 7 4 2 1 2 2 1 1 2 3 3 3 1 -2 -4 -3 -3 -2 -2 -3 -3 -3 -4 -5 -5 -6 -6 -6 -6 -6 -6 -6 -6 -6 -6 -6 -6 -5 -5 -5 -6 -5 -5 -4 -3 -3 -2 -2
7 6 3 1 2 2 2 1 1 2 3 4 3 1 -2 -3 -3 -3 -2 -3 -3 -3 -3 -4 -5 -5 -5 -6 -6 -6 -6 -6 -6 -6 -6 -6 -6 -5 -5 -5 -5 -5 -5 -5 -4 -3 -3 -3 -3
6 5 3 2 2 2 2 2 3 3 3 4 4 2 -2 -3 -3 -3 -2 -3 -3 -4 -4 -4 -4 -5 -5 -5 -5 -5 -5 -5 -5 -6 -6 -6 -5 -5 -5 -5 -5 -5 -5 -5 -4 -3 -3 -3 -2
7 5 3 2 2 2 3 3 4 4 4 4 4 2 -1 -3 -3 -2 -2 -3 -4 -4 -4 -4 -4 -5 -5 -5 -5 -5 -5 -5 -5 -5 -5 -5 -5 -5 -5 -5 -5 -5 -5 -4 -3 -3 -2 -2 -2
7 5 3 3 3 4 4 4 4 5 5 5 4 3 -0 -2 -2 -2 -2 -2 -4 -4 -4 -4 -4 -4 -4 -5 -5 -5 -5 -5 -5 -5 -5 -5 -4 -5 -5 -5 -5 -5 -4 -3 -2 -2 -2 -1 -1
6 4 3 4 4 5 5 5 5 5 5 5 5 4 1 -1 -1 -1 -2 -2 -3 -4 -5 -4 -4 -4 -4 -4 -4 -5 -5 -5 -5 -5 -4 -4 -4 -4 -5 -5 -4 -4 -3 -2 -1 -1 -1 -1 -1
5 5 4 5 5 5 5 5 5 4 4 5 5 4 3 2 0 -1 -1 -1 -2 -3 -4 -4 -4 -4 -3 -3 -4 -4 -4 -4 -4 -4 -4 -4 -4 -4 -5 -5 -4 -4 -3 -2 -1 -1 -1 -1 -1
6 6 6 6 6 5 5 5 5 4 4 5 5 5 5 4 3 1 0 -0 -1 -2 -3 -4 -4 -3 -3 -2 -3 -3 -3 -4 -4 -4 -4 -4 -4 -4 -5 -4 -4 -4 -3 -2 -1 -1 -1 -0 -0
6 6 6 6 6 5 5 4 4 4 5 5 5 5 5 5 5 4 3 2 1 -1 -2 -4 -4 -3 -2 -2 -2 -3 -3 -3 -4 -4 -4 -4 -4 -4 -5 -4 -4 -3 -3 -2 -2 -1 -1 -0 -0
6 6 6 6 5 5 4 4 4 4 5 5 5 5 5 5 5 5 5 4 3 1 -1 -3 -3 -3 -3 -2 -3 -3 -3 -3 -3 -4 -4 -4 -4 -4 -5 -4 -4 -4 -3 -2 -2 -2 -1 -1 -0
7 6 5 4 4 4 4 4 4 4 5 5 5 5 5 5 5 5 5 5 4 2 0 -2 -3 -3 -3 -3 -3 -4 -3 -3 -3 -4 -4 -4 -4 -4 -4 -4 -4 -4 -3 -3 -2 -2 -2 -1 -1
6 5 4 3 4 4 4 4 4 5 5 5 5 5 5 5 5 5 5 5 5 4 2 -1 -2 -3 -4 -3 -3 -3 -4 -4 -3 -4 -4 -5 -4 -4 -4 -4 -4 -4 -3 -3 -3 -2 -2 -1 -0
4 4 3 3 4 4 4 4 4 4 5 5 5 5 5 5 5 5 5 5 6 4 2 -0 -2 -3 -3 -3 -3 -3 -3 -3 -3 -4 -4 -4 -4 -4 -4 -3 -3 -3 -3 -3 -3 -2 -1 -0 1
3 3 3 4 4 4 4 4 4 4 4 4 4 4 4 4 4 5 5 5 5 4 2 0 -1 -2 -3 -3 -3 -3 -3 -3 -3 -3 -4 -4 -4 -3 -3 -3 -3 -3 -3 -2 -2 -2 -1 1 2
4 4 4 4 4 3 4 4 4 4 4 4 4 4 4 4 4 4 4 3 3 2 1 -0 -1 -1 -2 -2 -2 -3 -3 -3 -3 -3 -4 -4 -3 -3 -3 -3 -3 -3 -3 -2 -2 -2 -0 2 4
4 4 4 3 3 3 4 4 5 4 4 4 4 4 4 4 4 4 3 2 1 0 -0 -1 -1 -2 -2 -2 -2 -2 -3 -3 -3 -4 -4 -4 -4 -3 -3 -3 -3 -3 -3 -2 -2 -1 -0 3 5
3 3 3 3 3 3 4 5 5 5 4 4 4 4 4 4 4 4 3 2 1 -1 -1 -2 -2 -2 -2 -2 -2 -2 -3 -3 -3 -3 -4 -4 -3 -3 -3 -3 -3 -3 -2 -2 -1 -0 1 3 5
2 2 2 3 3 3 3 4 5 5 4 4 4 4 4 3 3 3 3 2 1 -1 -2 -3 -2 -2 -3 -3 -2 -2 -3 -3 -3 -3 -3 -3 -3 -3 -3 -2 -2 -2 -2 -1 -0 2 3 5 6
2 2 2 3 3 3 3 4 5 5 4 4 4 3 3 3 3 3 3 3 2 1 -1 -3 -3 -3 -3 -3 -3 -3 -3 -3 -3 -3 -3 -3 -3 -2 -2 -2 -1 -1 -1 -0 1 3 5 6 6
2 2 2 2 3 3 3 4 4 4 4 4 3 3 2 3 3 3 2 2 3 3 1 -2 -4 -4 -4 -4 -4 -3 -3 -3 -3 -3 -3 -3 -3 -2 -1 -1 -0 0 1 2 3 4 6 6 6
2 2 2 2 1 2 3 4 3 3 3 3 3 3 2 2 3 2 2 2 2 3 2 0 -2 -3 -3 -3 -3 -3 -3 -3 -3 -3 -3 -2 -2 -2 -1 1 2 2 3 4 5 6 6 7 7
2 2 2 1 1 2 3 3 3 3 3 3 3 2 2 2 2 2 1 1 1 2 2 2 0 -1 -2 -2 -2 -2 -3 -3 -3 -2 -2 -2 -1 -0 2 3 4 5 6 6 6 6 7 6 6
3 3 2 2 2 2 3 2 2 2 2 2 2 2 2 2 2 2 1 1 1 1 2 2 2 1 0 -0 -1 -1 -2 -2 -2 -2 -1 -1 0 2 4 5 6 6 7 7 7 6 6 5 5
3 2 2 2 2 2 2 2 1 0 1 1 1 2 2 2 1 1 1 1 1 1 1 2 2 2 1 1 0 -0 -1 -1 -1 -1 -1 0 2 3 4 5 6 6 7 7 6 6 5 5 5
2 2 2 2 2 2 2 2 1 -0 0 1 1 1 2 2 2 2 1 1 1 1 1 1 1 2 2 1 1 0 -0 -1 -1 -0 0 1 3 4 5 5 5 6 6 6 6 6 6 6 6
1 1 1 2 2 2 2 2 1 -0 0 1 1 2 2 2 2 2 1 1 1 1 0 0 1 2 2 2 1 1 0 -0 -0 0 1 2 3 4 5 5 5 5 6 6 6 6 6 6 7